EA3EH-1 Weather Reports


time (UTC)temp
C
wind
direction
speed
KPH
gust
KPH
rain 1hr
cm
rain 24hr
cm
rain mn
cm
humidity
%
barometer
mb
20260507225147 11 319 0.0 0.0 0.00 0.00 0.00 64 1010.0
20260507224147 11 320 0.0 3.2 0.00 0.00 0.00 63 1010.0
20260507222648 11 320 0.0 4.8 0.00 0.00 0.00 63 1011.0
20260507221147 11 323 3.2 3.2 0.00 0.00 0.00 61 1010.0
20260507220147 11 325 0.0 0.0 0.00 0.00 0.00 59 1010.0
20260507215649 11 325 0.0 4.8 0.00 0.00 0.00 58 1010.0
20260507215148 12 325 0.0 6.4 0.00 0.00 0.00 59 1010.0
20260507214647 12 324 0.0 0.0 0.00 0.00 0.00 59 1010.0
20260507212649 12 325 0.0 4.8 0.00 0.00 0.00 58 1010.0
20260507212147 12 325 0.0 0.0 0.00 0.00 0.00 57 1011.0
20260507211648 12 325 0.0 0.0 0.00 0.00 0.00 55 1011.0
20260507211147 12 325 4.8 0.0 0.00 0.00 0.00 53 1011.0
20260507210147 12 326 0.0 0.0 0.00 0.00 0.00 54 1010.0
20260507205648 12 326 3.2 0.0 0.00 0.00 0.00 54 1010.0
20260507204145 12 327 4.8 6.4 0.00 0.00 0.00 51 1010.0
20260507203147 13 327 3.2 0.0 0.00 0.00 0.00 48 1010.0
20260507202148 13 327 0.0 0.0 0.00 0.00 0.00 49 1010.0
20260507200648 13 327 4.8 3.2 0.00 0.00 0.00 47 1010.0
20260507195645 13 327 0.0 0.0 0.00 0.00 0.00 46 1010.0
20260507195147 14 327 0.0 0.0 0.00 0.00 0.00 45 1010.0
20260507194645 14 327 0.0 0.0 0.00 0.00 0.00 45 1010.0
20260507191649 15 327 0.0 0.0 0.00 0.00 0.00 38 1010.0
20260507190647 16 327 0.0 0.0 0.00 0.00 0.00 37 1010.0
20260507190145 16 327 0.0 0.0 0.00 0.00 0.00 37 1010.0
20260507185645 16 327 0.0 0.0 0.00 0.00 0.00 36 1010.0
20260507185145 16 327 0.0 0.0 0.00 0.00 0.00 35 1009.0
20260507183145 17 327 0.0 0.0 0.00 0.00 0.00 29 1009.0
20260507181146 17 329 0.0 4.8 0.00 0.00 0.00 26 1009.0
20260507180145 17 328 0.0 0.0 0.00 0.00 0.00 25 1009.0
20260507174145 18 313 0.0 0.0 0.00 0.00 0.00 24 1009.0
20260507172647 18 266 0.0 4.8 0.00 0.00 0.00 22 1009.0
20260507171645 19 42 0.0 8.0 0.00 0.00 0.00 17 1009.0
20260507171145 20 267 0.0 3.2 0.00 0.00 0.00 17 1009.0
20260507170146 22 221 0.0 0.0 0.00 0.00 0.00 14 1009.0
20260507164646 22 124 3.2 0.0 0.00 0.00 0.00 13 1009.0
20260507164145 22 292 0.0 0.0 0.00 0.00 0.00 16 1009.0
20260507163645 21 247 4.8 0.0 0.00 0.00 0.00 16 1009.0
20260507163145 21 65 3.2 0.0 0.00 0.00 0.00 19 1009.0
20260507162145 20 160 4.8 0.0 0.00 0.00 0.00 17 1009.0
20260507161648 21 201 0.0 4.8 0.00 0.00 0.00 14 1009.0
20260507161147 22 346 4.8 0.0 0.00 0.00 0.00 13 1009.0
20260507160647 23 203 3.2 3.2 0.00 0.00 0.00 13 1009.0
20260507160147 25 102 0.0 3.2 0.00 0.00 0.00 13 1009.0
20260507155646 23 232 0.0 0.0 0.00 0.00 0.00 13 1009.0
20260507155145 24 298 4.8 0.0 0.00 0.00 0.00 13 1008.0
20260507153645 23 41 4.8 4.8 0.00 0.00 0.00 13 1008.0
20260507153146 24 220 4.8 4.8 0.00 0.00 0.00 13 1008.0
20260507151145 23 208 4.8 0.0 0.00 0.00 0.00 13 1008.0
20260507145649 24 324 4.8 6.4 0.00 0.00 0.00 13 1008.0
20260507145147 25 149 4.8 4.8 0.00 0.00 0.00 13 1008.0
20260507144147 25 208 4.8 4.8 0.00 0.00 0.00 13 1008.0
20260507142145 22 54 6.4 4.8 0.00 0.00 0.00 13 1008.0
20260507141145 22 130 6.4 3.2 0.00 0.00 0.00 16 1008.0
20260507135648 23 188 3.2 9.7 0.00 0.00 0.00 16 1008.0
20260507134146 20 356 4.8 8.0 0.00 0.00 0.00 22 1009.0
20260507132645 20 291 4.8 6.4 0.00 0.00 0.00 22 1009.0
20260507131145 21 169 6.4 0.0 0.00 0.00 0.00 22 1009.0
20260507130146 22 111 4.8 9.7 0.00 0.00 0.00 18 1009.0
20260507125645 22 206 4.8 4.8 0.00 0.00 0.00 16 1009.0
20260507124648 23 261 4.8 0.0 0.00 0.00 0.00 13 1009.0
20260507123648 24 98 4.8 0.0 0.00 0.00 0.00 15 1009.0
20260507122645 23 240 4.8 8.0 0.00 0.00 0.00 15 1009.0
20260507121645 22 134 4.8 6.4 0.00 0.00 0.00 18 1009.0
20260507121146 22 68 4.8 4.8 0.00 0.00 0.00 18 1009.0
20260507120647 22 158 4.8 0.0 0.00 0.00 0.00 21 1009.0
20260507120145 22 102 4.8 0.0 0.00 0.00 0.00 21 1009.0
20260507115645 21 223 4.8 0.0 0.00 0.00 0.00 21 1009.0
20260507114146 21 63 4.8 0.0 0.00 0.00 0.00 19 1009.0
20260507113648 22 201 3.2 0.0 0.00 0.00 0.00 21 1009.0
20260507112145 21 183 4.8 0.0 0.00 0.00 0.00 22 1010.0
20260507111145 20 149 3.2 0.0 0.00 0.00 0.00 24 1010.0
20260507110645 20 44 0.0 3.2 0.00 0.00 0.00 24 1010.0
20260507104145 19 131 0.0 6.4 0.00 0.00 0.00 28 1010.0
20260507103645 19 104 0.0 0.0 0.00 0.00 0.00 30 1010.0
20260507102645 19 302 0.0 3.2 0.00 0.00 0.00 32 1010.0
20260507102145 18 10 4.8 0.0 0.00 0.00 0.00 32 1010.0
20260507101645 18 212 0.0 0.0 0.00 0.00 0.00 33 1010.0
20260507100146 18 86 0.0 0.0 0.00 0.00 0.00 33 1010.0
20260507094650 17 64 0.0 0.0 0.00 0.00 0.00 35 1010.0
20260507093145 17 95 3.2 0.0 0.00 0.00 0.00 37 1010.0
20260507092644 17 109 3.2 3.2 0.00 0.00 0.00 36 1010.0
20260507091646 16 80 3.2 0.0 0.00 0.00 0.00 37 1010.0
20260507091145 16 112 0.0 0.0 0.00 0.00 0.00 38 1010.0
20260507090645 16 73 3.2 0.0 0.00 0.00 0.00 40 1010.0
20260507085645 16 332 0.0 0.0 0.00 0.00 0.00 42 1010.0
20260507085145 15 33 4.8 0.0 0.00 0.00 0.00 44 1010.0
20260507084645 15 116 0.0 3.2 0.00 0.00 0.00 44 1010.0
20260507084145 15 71 0.0 0.0 0.00 0.00 0.00 45 1010.0
20260507082651 14 193 0.0 3.2 0.00 0.00 0.00 49 1010.0
20260507081645 13 195 0.0 0.0 0.00 0.00 0.00 52 1010.0
20260507081145 13 196 0.0 4.8 0.00 0.00 0.00 55 1010.0
20260507080645 13 196 0.0 0.0 0.00 0.00 0.00 58 1011.0
20260507080145 13 196 0.0 0.0 0.00 0.00 0.00 62 1011.0
20260507074647 12 196 0.0 0.0 0.00 0.00 0.00 66 1011.0
20260507070148 11 205 0.0 0.0 0.00 0.00 0.00 75 1011.0
20260507063647 10 213 6.4 4.8 0.00 0.00 0.00 79 1010.0
20260507061646 10 254 0.0 0.0 0.00 0.00 0.00 79 1010.0
20260507060148 10 301 3.2 4.8 0.00 0.00 0.00 80 1010.0
20260507051147 8 293 0.0 0.0 0.00 0.00 0.00 80 1010.0
20260507045647 8 288 4.8 4.8 0.00 0.00 0.00 81 1010.0
20260507045151 8 279 0.0 0.0 0.00 0.00 0.00 81 1010.0
20260507044646 8 305 3.2 0.0 0.00 0.00 0.00 80 1010.0
20260507044146 8 285 0.0 0.0 0.00 0.00 0.00 80 1010.0
20260507043648 8 305 0.0 0.0 0.00 0.00 0.00 80 1010.0
20260507042146 8 286 3.2 4.8 0.00 0.00 0.00 79 1010.0
20260507041647 8 263 3.2 0.0 0.00 0.00 0.00 80 1010.0
20260507034147 8 254 4.8 6.4 0.00 0.00 0.00 80 1010.0
20260507031647 9 291 4.8 0.0 0.00 0.00 0.00 80 1010.0
20260507025148 10 275 0.0 0.0 0.00 0.00 0.00 80 1010.0
20260507024647 10 276 0.0 0.0 0.00 0.00 0.00 80 1010.0
20260507023149 10 277 3.2 0.0 0.00 0.00 0.00 80 1010.0
20260507021146 10 276 4.8 0.0 0.00 0.00 0.00 79 1010.0
20260507015646 10 272 0.0 0.0 0.00 0.00 0.00 79 1010.0
20260507014647 10 272 0.0 0.0 0.00 0.00 0.00 78 1010.0
20260507014148 10 272 0.0 0.0 0.00 0.00 0.00 77 1010.0
20260507013649 10 271 0.0 0.0 0.00 0.00 0.00 76 1010.0
20260507012149 11 271 0.0 0.0 0.00 0.00 0.00 76 1011.0
20260507010647 11 265 0.0 4.8 0.00 0.00 0.00 75 1011.0
20260507005147 11 258 4.8 0.0 0.00 0.00 0.00 74 1011.0
20260507002149 11 300 0.0 0.0 0.00 0.00 0.00 72 1011.0
20260507001147 11 268 0.0 0.0 0.00 0.00 0.00 70 1011.0
20260506235645 11 221 3.2 3.2 0.00 0.00 0.00 70 1011.0
20260506235148 11 220 0.0 0.0 0.00 0.00 0.00 69 1011.0
20260506231148 12 212 4.8 4.8 0.00 0.00 0.00 65 1011.0
20260506230645 12 274 0.0 0.0 0.00 0.00 0.00 66 1011.0
20260506230147 12 206 4.8 6.4 0.00 0.00 0.00 68 1011.0
20260506225649 12 274 3.2 0.0 0.00 0.00 0.00 69 1011.0